N1XBM-13 Weather Reports


Display with metric or nautical units.
time (UTC)temp
F
wind
direction
speed
MPH
gust
MPH
rain 1hr
in
rain 24hr
in
rain mn
in
humidity
%
barometer
mb
20260504221004 68 279 1.0 8.0 0.00 0.00 0.00 36 989.6
20260504220004 68 266 1.0 8.0 0.00 0.00 0.00 37 989.6
20260504214004 68 217 1.0 9.0 0.00 0.00 0.00 36 989.7
20260504213005 68 39 5.0 9.0 0.00 0.00 0.00 36 989.7
20260504212004 68 207 1.0 7.0 0.00 0.00 0.00 36 989.7
20260504211004 68 211 2.0 9.0 0.00 0.00 0.00 37 989.7
20260504210004 68 248 3.0 12.0 0.00 0.00 0.00 36 989.6
20260504205003 68 234 3.0 13.0 0.00 0.00 0.00 36 989.6
20260504204005 69 247 2.0 7.0 0.00 0.00 0.00 35 989.5
20260504203004 69 321 3.0 8.0 0.00 0.00 0.00 36 989.7
20260504202004 68 236 4.0 9.0 0.00 0.00 0.00 37 989.7
20260504201003 67 214 6.0 12.0 0.00 0.00 0.00 37 989.9
20260504200004 67 342 2.0 8.0 0.00 0.00 0.00 38 990.1
20260504195003 67 350 2.0 15.0 0.00 0.00 0.00 38 990.0
20260504194004 67 13 3.0 8.0 0.00 0.00 0.00 40 990.1
20260504193004 67 345 5.0 10.0 0.00 0.00 0.00 40 990.1
20260504192003 67 31 3.0 8.0 0.00 0.00 0.00 39 990.0
20260504190004 66 98 3.0 12.0 0.00 0.00 0.00 40 990.0
20260504185004 66 356 3.0 12.0 0.00 0.00 0.00 41 990.1
20260504184005 64 14 4.0 10.0 0.00 0.00 0.00 42 990.2
20260504183003 63 219 1.0 6.0 0.00 0.00 0.00 47 990.4
20260504182004 63 27 1.0 5.0 0.00 0.00 0.00 46 990.4
20260504181004 63 242 2.0 8.0 0.00 0.00 0.00 46 990.4
20260504180004 63 34 1.0 10.0 0.00 0.00 0.00 43 990.4
20260504175004 63 29 1.0 12.0 0.00 0.00 0.00 42 990.4
20260504173004 62 213 5.0 14.0 0.00 0.00 0.00 41 990.5
20260504172004 63 287 3.0 9.0 0.00 0.00 0.00 41 990.4
20260504171003 63 311 2.0 14.0 0.00 0.00 0.00 40 990.2
20260504151003 60 199 5.0 10.0 0.00 0.01 0.00 50 990.9
20260504141004 56 245 3.0 8.0 0.00 0.01 0.00 58 991.7
20260504082003 36 198 0.0 2.0 0.00 0.01 0.00 86 992.5
20260504050004 36 236 0.0 0.0 0.00 0.01 0.00 84 992.2
20260504045004 36 236 0.0 0.0 0.00 0.01 0.00 84 992.0
20260504044004 36 236 0.0 0.0 0.00 0.01 0.00 83 992.1
20260504043004 37 236 0.0 0.0 0.00 0.01 0.00 84 992.2
20260504042004 37 236 0.0 0.0 0.00 0.01 0.00 81 992.2
20260504041004 38 236 0.0 0.0 0.00 0.01 0.00 79 992.1
20260504035005 39 236 0.0 0.0 0.00 0.01 0.01 80 992.0
20260504034004 39 236 0.0 0.0 0.00 0.01 0.01 78 992.0
20260504031004 40 208 0.0 0.0 0.00 0.01 0.01 74 991.8
20260504030004 40 208 0.0 0.0 0.00 0.01 0.01 75 991.8
20260504025005 40 208 0.0 1.0 0.00 0.01 0.01 74 991.8
20260504024005 40 296 0.0 0.0 0.00 0.01 0.01 74 991.9
20260504023004 40 296 0.0 0.0 0.00 0.01 0.01 73 992.0
20260504022005 41 296 0.0 0.0 0.00 0.01 0.01 74 992.0
20260504021005 41 296 0.0 0.0 0.00 0.01 0.01 72 992.0
20260504020004 41 296 0.0 0.0 0.00 0.01 0.01 71 991.9
20260504015006 42 296 0.0 0.0 0.00 0.02 0.01 70 991.9
20260504014004 42 296 0.0 0.0 0.00 0.02 0.01 67 991.8
20260504012004 43 296 0.0 2.0 0.00 0.03 0.01 66 991.7
20260504011004 44 339 0.0 0.0 0.00 0.03 0.01 62 991.6
20260504010004 44 339 0.0 0.0 0.00 0.04 0.01 61 991.5
20260504004004 46 339 0.0 0.0 0.00 0.05 0.01 58 991.1
20260504003005 46 339 1.0 5.0 0.00 0.05 0.01 56 991.0
20260504002005 46 27 1.0 6.0 0.00 0.05 0.01 56 990.8
20260504001004 47 330 0.0 5.0 0.00 0.05 0.01 56 990.6
20260504000006 47 21 2.0 9.0 0.00 0.05 0.01 52 990.5
20260503235004 48 8 1.0 9.0 0.00 0.06 0.01 52 990.3
20260503233004 48 21 3.0 15.0 0.00 0.07 0.01 49 990.0
20260503232004 49 41 4.0 12.0 0.00 0.07 0.01 48 989.9
20260503231004 49 339 1.0 10.0 0.00 0.07 0.01 51 989.8
20260503230005 49 5 5.0 10.0 0.00 0.07 0.01 46 989.5
20260503225004 50 4 2.0 13.0 0.00 0.08 0.01 45 989.4
20260503224004 50 351 5.0 12.0 0.00 0.09 0.01 44 989.4
20260503223005 51 4 5.0 13.0 0.00 0.10 0.01 44 989.2